Time,TemperatureF,DewpointF,PressureIn,WindDirection,WindDirectionDegrees,WindSpeedMPH,WindSpeedGustMPH,Humidity,HourlyPrecipIn,Conditions,Clouds,dailyrainin,SolarRadiationWatts/m^2,SoftwareType,DateUTC
2013-08-27 00:01:00,63.0,51.0,-100.00,West,265,5.0,10.0,65,0.00,,,0.00,0.000000,,2013-08-27 07:01:00,
2013-08-27 00:12:00,63.0,51.0,-100.00,West,265,5.0,10.0,65,0.00,,,0.00,0.000000,,2013-08-27 07:12:00,
2013-08-27 00:21:00,63.0,51.0,-100.00,West,265,5.0,10.0,65,0.00,,,0.00,0.000000,,2013-08-27 07:21:00,
2013-08-27 00:30:00,61.0,52.0,-100.00,NNE,23,2.0,6.0,73,0.00,,,0.00,0.000000,,2013-08-27 07:30:00,
2013-08-27 00:52:00,61.0,52.0,-100.00,NNE,23,2.0,6.0,73,0.00,,,0.00,0.000000,,2013-08-27 07:52:00,
2013-08-27 01:02:00,61.0,52.0,-100.00,NNE,23,2.0,6.0,73,0.00,,,0.00,0.000000,,2013-08-27 08:02:00,
2013-08-27 01:11:00,61.0,52.0,-100.00,NNE,23,2.0,6.0,73,0.00,,,0.00,0.000000,,2013-08-27 08:11:00,
2013-08-27 01:22:00,61.0,52.0,-100.00,NNE,23,2.0,6.0,73,0.00,,,0.00,0.000000,,2013-08-27 08:22:00,
2013-08-27 02:30:00,55.0,53.0,-100.00,West,259,1.0,5.0,93,-99.99,,,0.00,0.000000,,2013-08-27 09:30:00,
2013-08-27 03:25:00,55.0,53.0,-100.00,West,259,1.0,5.0,93,-99.99,,,0.00,0.000000,,2013-08-27 10:25:00,
2013-08-27 03:30:00,55.0,52.0,-100.00,West,266,2.0,5.0,90,0.00,,,0.00,0.000000,,2013-08-27 10:30:00,
2013-08-27 03:53:00,55.0,52.0,-100.00,West,266,2.0,5.0,90,0.00,,,0.00,0.000000,,2013-08-27 10:53:00,
2013-08-27 04:03:00,55.0,52.0,-100.00,West,266,2.0,5.0,90,0.00,,,0.00,0.000000,,2013-08-27 11:03:00,
2013-08-27 04:12:00,55.0,52.0,-100.00,West,266,2.0,5.0,90,0.00,,,0.00,0.000000,,2013-08-27 11:12:00,
2013-08-27 04:22:00,55.0,52.0,-100.00,West,266,2.0,5.0,90,0.00,,,0.00,0.000000,,2013-08-27 11:22:00,
2013-08-27 04:30:00,57.0,52.0,-100.00,WNW,301,4.0,6.0,82,0.00,,,0.00,0.000000,,2013-08-27 11:30:00,
2013-08-27 04:52:00,57.0,52.0,-100.00,WNW,301,4.0,6.0,82,0.00,,,0.00,0.000000,,2013-08-27 11:52:00,
2013-08-27 05:02:00,57.0,52.0,-100.00,WNW,301,4.0,6.0,82,0.00,,,0.00,0.000000,,2013-08-27 12:02:00,
2013-08-27 05:12:00,57.0,52.0,-100.00,WNW,301,4.0,6.0,82,0.00,,,0.00,0.000000,,2013-08-27 12:12:00,
2013-08-27 05:21:00,57.0,52.0,-100.00,WNW,301,4.0,6.0,82,0.00,,,0.00,0.000000,,2013-08-27 12:21:00,
2013-08-27 05:30:00,53.0,50.0,-100.00,NW,310,3.0,7.0,91,0.00,,,0.00,0.000000,,2013-08-27 12:30:00,
2013-08-27 05:52:00,53.0,50.0,-100.00,NW,310,3.0,7.0,91,0.00,,,0.00,0.000000,,2013-08-27 12:52:00,
2013-08-27 06:01:00,53.0,50.0,-100.00,NW,310,3.0,7.0,91,0.00,,,0.00,0.000000,,2013-08-27 13:01:00,
2013-08-27 06:11:00,53.0,50.0,-100.00,NW,310,3.0,7.0,91,0.00,,,0.00,0.000000,,2013-08-27 13:11:00,
2013-08-27 06:22:00,53.0,50.0,-100.00,NW,310,3.0,7.0,91,0.00,,,0.00,0.000000,,2013-08-27 13:22:00,
2013-08-27 06:30:00,52.0,49.0,-100.00,WNW,299,3.0,6.0,91,0.00,,,0.00,3.000000,,2013-08-27 13:30:00,
2013-08-27 06:52:00,52.0,49.0,-100.00,WNW,299,3.0,6.0,91,0.00,,,0.00,3.000000,,2013-08-27 13:52:00,
2013-08-27 07:02:00,52.0,49.0,-100.00,WNW,299,3.0,6.0,91,0.00,,,0.00,3.000000,,2013-08-27 14:02:00,
2013-08-27 07:11:00,52.0,49.0,-100.00,WNW,299,3.0,6.0,91,0.00,,,0.00,3.000000,,2013-08-27 14:11:00,
2013-08-27 07:22:00,52.0,49.0,-100.00,WNW,299,3.0,6.0,91,0.00,,,0.00,3.000000,,2013-08-27 14:22:00,
2013-08-27 07:30:00,59.0,54.0,-100.00,NNE,31,3.0,5.0,84,0.00,,,0.00,69.000000,,2013-08-27 14:30:00,
2013-08-27 08:11:00,59.0,54.0,-100.00,NNE,31,3.0,5.0,84,0.00,,,0.00,69.000000,,2013-08-27 15:11:00,
2013-08-27 08:22:00,59.0,54.0,-100.00,NNE,31,3.0,5.0,84,0.00,,,0.00,69.000000,,2013-08-27 15:22:00,
2013-08-27 08:30:00,67.0,54.0,-100.00,NW,322,1.0,4.0,62,0.00,,,0.00,246.000000,,2013-08-27 15:30:00,
2013-08-27 08:58:00,67.0,54.0,-100.00,NW,322,1.0,4.0,62,0.00,,,0.00,246.000000,,2013-08-27 15:58:00,
2013-08-27 09:09:00,67.0,54.0,-100.00,NW,322,1.0,4.0,62,0.00,,,0.00,246.000000,,2013-08-27 16:09:00,
2013-08-27 09:17:00,67.0,54.0,-100.00,NW,322,1.0,4.0,62,0.00,,,0.00,246.000000,,2013-08-27 16:17:00,
2013-08-27 09:28:00,67.0,54.0,-100.00,NW,322,1.0,4.0,62,0.00,,,0.00,246.000000,,2013-08-27 16:28:00,
2013-08-27 09:30:00,72.0,53.0,-100.00,NW,314,3.0,6.0,52,0.00,,,0.00,443.000000,,2013-08-27 16:30:00,
2013-08-27 10:13:00,72.0,53.0,-100.00,NW,314,3.0,6.0,52,0.00,,,0.00,443.000000,,2013-08-27 17:13:00,
2013-08-27 10:23:00,72.0,53.0,-100.00,NW,314,3.0,6.0,52,0.00,,,0.00,443.000000,,2013-08-27 17:23:00,
2013-08-27 10:30:00,78.0,52.0,-100.00,ESE,109,3.0,6.0,41,0.00,,,0.00,631.000000,,2013-08-27 17:30:00,
2013-08-27 11:12:00,78.0,52.0,-100.00,ESE,109,3.0,6.0,41,0.00,,,0.00,631.000000,,2013-08-27 18:12:00,
2013-08-27 11:21:00,78.0,52.0,-100.00,ESE,109,3.0,6.0,41,0.00,,,0.00,631.000000,,2013-08-27 18:21:00,
2013-08-27 11:30:00,81.0,52.0,-100.00,ESE,112,4.0,11.0,36,0.00,,,0.00,785.000000,,2013-08-27 18:30:00,
2013-08-27 11:53:00,81.0,52.0,-100.00,ESE,112,4.0,11.0,36,0.00,,,0.00,785.000000,,2013-08-27 18:53:00,
2013-08-27 12:01:00,81.0,52.0,-100.00,ESE,112,4.0,11.0,36,0.00,,,0.00,785.000000,,2013-08-27 19:01:00,
2013-08-27 12:11:00,81.0,52.0,-100.00,ESE,112,4.0,11.0,36,0.00,,,0.00,785.000000,,2013-08-27 19:11:00,
2013-08-27 12:22:00,81.0,52.0,-100.00,ESE,112,4.0,11.0,36,0.00,,,0.00,785.000000,,2013-08-27 19:22:00,
2013-08-27 12:52:00,84.0,51.0,-100.00,East,98,6.0,12.0,32,0.00,,,0.00,872.000000,,2013-08-27 19:52:00,
2013-08-27 13:02:00,84.0,51.0,-100.00,East,98,6.0,12.0,32,0.00,,,0.00,872.000000,,2013-08-27 20:02:00,
2013-08-27 13:11:00,84.0,51.0,-100.00,East,98,6.0,12.0,32,0.00,,,0.00,872.000000,,2013-08-27 20:11:00,